Concordia, KS

5:14 AM CDT on October 15, 2019 (GMT -0500)
Blosser Municipal

Weather History for KCNK - August, 2019

Change the Weather History Date:

Sunday, August 4, 2019

  Actual Average Record
Temperature  
Mean Temperature 78 °F 79 °F  
Max Temperature 88 °F 90 °F 108 °F (1918)
Min Temperature 68 °F 67 °F 49 °F (1894)
Degree Days  
Heating Degree Days 0 0  
Month to date heating degree days 0 0  
Since 1 June heating degree days 0 13  
Since 1 July heating degree days 0 0  
Cooling Degree Days 13 14  
Month to date cooling degree days 50 56  
Year to date cooling degree days 955 846  
Since 1 June cooling degree days 855 757  
Growing Degree Days 28 (Base 50)    
Moisture  
Dew Point 70 °F    
Average Humidity 80    
Maximum Humidity 100    
Minimum Humidity 59    
Precipitation  
Precipitation 0.00 in 0.10 in 1.44 in (1977)
Month to date precipitation 1.44 0.43  
Year to date precipitation 23.67 18.39  
Snow  
Snow 0.00 in 0.00 in 0.00 in ()
Month to date snowfall 0.0 0.0  
Year to date snowfall 32.3 13.7  
Since 1 July snowfall 0.0 0.0  
Snow Depth 0.00 in    
Sea Level Pressure  
Sea Level Pressure 30.03 in    
Wind  
Wind Speed 5 mph (SE)    
Max Wind Speed 10 mph    
Max Gust Speed 14 mph    
Visibility 6 miles    
Events Fog    
T = Trace of Precipitation, MM = Missing Value Source: NWS Daily Summary

Daily Weather History Graph

Daily Weather History Graph

Search for Another Location

Airport or City:

Astronomy

Aug. 04, 2019 Rise Set
Actual Time 6:32 AM CDT 8:40 PM CDT
Civil Twilight 6:02 AM CDT 9:09 PM CDT
Nautical Twilight 5:26 AM CDT 9:46 PM CDT
Astronomical Twilight 4:46 AM CDT 10:25 PM CDT
Moon 10:39 AM CDT (8/4) 11:21 PM CDT (8/4)
Length of Visible Light 15h 07m
Length of Day
14h 07m
Waxing Crescent, 18% of the Moon is Illuminated
Aug 4
Waxing Crescent
Aug 7
First Quarter
Aug 15
Full
Aug 23
Last Quarter
Aug 30
New

Hourly Weather History & Observations

Time (CDT) Temp. Heat Index Dew Point Humidity Pressure Visibility Wind Dir Wind Speed Gust Speed Precip Events Conditions
12:55 AM 72.0 °F - 69.1 °F 91% 30.04 in 10.0 mi Calm Calm - N/A   Clear
1:55 AM 71.1 °F - 69.1 °F 93% 30.03 in 6.0 mi Calm Calm - N/A   Clear
2:55 AM 70.0 °F - 69.1 °F 97% 30.03 in 3.0 mi Calm Calm - N/A   Clear
3:09 AM 69.1 °F - 68.0 °F 96% 30.07 in 1.8 mi Calm Calm - N/A   Clear
3:11 AM 69.1 °F - 68.0 °F 96% 30.07 in 1.2 mi Calm Calm - N/A   Clear
3:19 AM 69.1 °F - 66.9 °F 93% 30.07 in 0.8 mi Calm Calm - N/A   Clear
3:55 AM 70.0 °F - 68.0 °F 93% 30.03 in 0.8 mi Calm Calm - N/A   Clear
4:15 AM 68.0 °F - 66.9 °F 96% 30.07 in 1.0 mi Calm Calm - N/A   Clear
4:18 AM 69.1 °F - 66.9 °F 93% 30.07 in 0.8 mi Calm Calm - N/A   Mist
4:55 AM 69.1 °F - 68.0 °F 96% 30.02 in 0.2 mi Calm Calm - N/A Fog Fog
5:39 AM 68.0 °F - 66.9 °F 96% 30.07 in 1.2 mi Calm Calm - N/A   Scattered Clouds
5:42 AM 68.0 °F - 66.9 °F 96% 30.07 in 0.8 mi East 3.5 mph - N/A   Mist
5:55 AM 68.0 °F - 66.9 °F 96% 30.02 in 0.2 mi Calm Calm - N/A Fog Fog
6:55 AM 69.1 °F - 68.0 °F 96% 30.04 in 0.2 mi Calm Calm - N/A Fog Fog
7:33 AM 70.0 °F - 69.1 °F 97% 30.08 in 1.0 mi Calm Calm - N/A   Mostly Cloudy
7:38 AM 70.0 °F - 69.1 °F 97% 30.09 in 1.8 mi Calm Calm - N/A   Mostly Cloudy
7:46 AM 71.1 °F - 69.1 °F 93% 30.08 in 2.5 mi Calm Calm - N/A   Mostly Cloudy
7:55 AM 71.1 °F - 69.1 °F 93% 30.04 in 2.5 mi ESE 3.5 mph - N/A   Partly Cloudy
8:06 AM 72.0 °F - 71.1 °F 97% 30.08 in 3.0 mi East 3.5 mph - N/A   Partly Cloudy
8:55 AM 73.9 °F - 72.0 °F 93% 30.05 in 10.0 mi SSE 5.8 mph - N/A   Scattered Clouds
9:55 AM 78.1 °F - 72.0 °F 81% 30.05 in 10.0 mi SSE 4.6 mph - N/A   Partly Cloudy
10:11 AM 80.1 °F 83.8 °F 72.0 °F 76% 30.09 in 10.0 mi SSE 3.5 mph - N/A   Mostly Cloudy
10:55 AM 80.1 °F 83.8 °F 72.0 °F 76% 30.05 in 10.0 mi WSW 4.6 mph - N/A   Overcast
11:40 AM 82.9 °F 88.0 °F 72.0 °F 69% 30.09 in 10.0 mi SE 4.6 mph - N/A   Scattered Clouds
11:55 AM 82.9 °F 88.8 °F 73.0 °F 72% 30.04 in 10.0 mi SE 6.9 mph - N/A   Clear
12:55 PM 84.9 °F 90.7 °F 72.0 °F 65% 30.03 in 10.0 mi SSE 8.1 mph - N/A   Scattered Clouds
1:55 PM 86.0 °F 91.5 °F 71.1 °F 61% 30.02 in 10.0 mi SE 4.6 mph - N/A   Partly Cloudy
2:55 PM 86.0 °F 91.5 °F 71.1 °F 61% 30.01 in 10.0 mi SE 5.8 mph - N/A   Scattered Clouds
3:55 PM 86.0 °F 91.5 °F 71.1 °F 61% 29.99 in 10.0 mi ESE 8.1 mph - N/A   Partly Cloudy
4:55 PM 87.1 °F 92.8 °F 71.1 °F 59% 29.98 in 10.0 mi ESE 10.4 mph - N/A   Mostly Cloudy
5:55 PM 86.0 °F 91.5 °F 71.1 °F 61% 29.97 in 10.0 mi ESE 8.1 mph - N/A   Clear
6:55 PM 84.9 °F 89.4 °F 70.0 °F 61% 29.95 in 10.0 mi ESE 10.4 mph - N/A   Clear
7:55 PM 82.0 °F 86.3 °F 71.1 °F 69% 29.96 in 10.0 mi SE 5.8 mph - N/A   Clear
8:55 PM 78.1 °F - 71.1 °F 79% 29.97 in 10.0 mi ESE 3.5 mph - N/A   Clear
9:55 PM 75.0 °F - 70.0 °F 84% 30.00 in 10.0 mi SE 3.5 mph - N/A   Clear
10:55 PM 75.0 °F - 70.0 °F 84% 30.01 in 10.0 mi ESE 3.5 mph - N/A   Clear
11:55 PM 73.9 °F - 69.1 °F 85% 29.99 in 10.0 mi SSE 6.9 mph - N/A   Clear